Location: Ernsee
(50.8780°N, 12.0389°E)
Time: 21:40:08
(UTC+00:00)

USA 215 - Pass Details

Date: 20 January 2020
Orbit: 1101 x 1107 km, 123.0° (Epoch: 06 February)

Event Time Altitude Azimuth Distance (km) Brightness Sun altitude
Rises 04:12:41 0° 138° (SE) 3,913 6.7 -26.5°
Reaches altitude 10° 04:15:13 10° 142° (SE) 2,957 6.0 -26.1°
Maximum altitude 04:21:37 56° 220° (SW) 1,292 3.3 -25.1°
Enters shadow 04:22:45 50° 256° (WSW) 1,377 3.3 -24.9°
